Home > Time Zones > World Clock > Weather > Latvia > Riga > Past weeks

Flag for Latvia Weather past 2 weeks in Riga, Latvia

Now
75 °F

Sunny.


Feels Like: 77 °F
Forecast: 59 / 79 °F
Wind: 13 mph from North

Location: Riga Airport

Current Time: Jul 23, 2014 at 7:14:51 PM

Latest Report: Jul 23, 2014 at 6:50 PM


Visibility: 10 mi

Pressure: 30.12 "Hg

Humidity: 61%

Dew point: 61 °F

Location of RigaLocation

Historic Weather in Riga — Graph

°F

Riga temperature yesterday

Maximum temperature yesterday: 77 °F (at 11:20 AM)
Minimum temperature yesterday: 57 °F (at 5:20 AM)
Average temperature yesterday: 70 °F

Past Weeks' High & Low Weather Summary

 TemperatureHumidityPressure
High82 °F (Jul 8, 6:20 PM)100% (Jul 14, 1:50 AM)30.18 "Hg (Jul 14, 1:50 AM)
Low54 °F (Jul 17, 4:50 AM)36% (Jul 11, 3:50 PM)29.74 "Hg (Jul 13, 1:50 AM)
Average68 °F72%30.00 "Hg
* Reported Jul 8 6:20 PM — Jul 23 6:20 PM, Riga, Weather by CustomWeather, © 2014

Note: Actual official high and low records may vary slightly from our data, if they occured in-between our weather recording intervals... More about our weather records

Advertising

Riga weather history for previous 24 hours

 ConditionsComfort  
Time TempWeatherWind HumidityBarometerVisibility
6:20 PM
Jul 23
75 °FPassing clouds.10 mph61%30.12 "HgN/A
5:50 PM75 °FSunny.12 mph57%30.15 "Hg10 mi
5:20 PM77 °FSunny.13 mph54%30.15 "Hg10 mi
4:50 PM77 °FPassing clouds.10 mph57%30.15 "HgN/A
4:20 PM77 °FPassing clouds.12 mph51%30.15 "HgN/A
3:20 PM75 °FScattered clouds.10 mph57%30.15 "HgN/A
2:50 PM77 °FScattered clouds.9 mph51%30.15 "HgN/A
2:20 PM77 °FScattered clouds.8 mph51%30.18 "HgN/A
1:50 PM75 °FScattered clouds.8 mph57%30.18 "HgN/A
12:50 PM75 °FScattered clouds.6 mph54%30.18 "HgN/A
12:20 PM77 °FScattered clouds.5 mph47%30.18 "HgN/A
8:20 AM68 °FSunny.2 mph78%30.18 "Hg10 mi
7:50 AM66 °FSunny.No wind78%30.18 "Hg10 mi
7:20 AM64 °FSunny.No wind83%30.18 "Hg10 mi
6:50 AM61 °FSunny.No wind94%30.18 "Hg10 mi
6:20 AM59 °FSunny.No wind94%30.18 "Hg10 mi
5:50 AM57 °FClear.6 mph100%30.18 "Hg10 mi
5:20 AM55 °FClear.No wind100%30.18 "Hg10 mi
4:50 AM55 °FClear.No wind100%30.18 "Hg10 mi
4:20 AM57 °FClear.No wind94%30.18 "Hg10 mi
3:50 AM57 °FClear.No wind94%30.18 "Hg10 mi
3:20 AM57 °FClear.2 mph94%30.18 "Hg10 mi
2:50 AM59 °FClear.2 mph88%30.18 "Hg10 mi
7:50 PM
Jul 22
73 °FPassing clouds.14 mph65%30.09 "HgN/A
7:20 PM75 °FSunny.16 mph54%30.09 "Hg10 mi
Weather by CustomWeather, © 2014

See weather overviewHow to use our weather pages